Location: Góry Miechowskie
(50.3599°N, 20.1803°E)
Time: 15:03:00
(UTC+00:00)

Vanguard 1 Rocket - Pass Details

Date: 21 September 2024
Orbit: 650 x 4218 km, 34.3° (Epoch: 07 October)

Event Time Altitude Azimuth Distance (km) Brightness Sun altitude
Rises 08:15:06 0° 277° (W) 7,532 11.7 32.2°
Reaches altitude 10° 08:22:14 10° 263° (W) 6,965 11.7 33.0°
Maximum altitude 08:36:30 20° 227° (SW) 6,578 12.0 34.4°
Drops below altitude 10° 08:51:23 10° 191° (S) 7,176 12.7 35.7°
Sets 08:59:14 0° 176° (S) 7,803 13.0 36.3°
